Погода в Ясашной Ташле

Россия / Ульяновская область     53°54′34″N   48°16′39″E
темп.,
°C
ветер,
м/с
пор.,
м/с
влажн.,
%
обл.,
%
осадки,
мм/ч
давл.,
гПа
погр.,
м
20 июня, вс
вс2001:00+16з38913 0.0 1023141
04:00+15з25910 0.0 102378
07:00+19зсз25781 0.0 1023184
10:00+24зсз34653 0.0 1023560
13:00+27сз33563 0.0 10231260
16:00+27сз33530 0.0 10221495
19:00+26сз23680 0.0 1021211
22:00+20зсз11850 0.0 102211
21 июня, пн
пн2101:00+19зюз11890 0.0 102311
04:00+18з11900 0.0 102311
07:00+21зюз11800 0.0 1023114
10:00+26зюз22652 0.0 1023796
13:00+28з32525 0.0 10231858
16:00+29з12465 0.0 10221866
19:00+27юв02635 0.0 1021160
22:00+21юз11783 0.0 102311
22 июня, вт
вт2201:00+20зюз11811 0.0 102311
04:00+19зюз11842 0.0 102311
07:00+23з117440 0.0 102390
10:00+27зсз22605 0.0 1023674
13:00+29з23505 0.0 10231722
16:00+29з3247100 0.0 10221958
19:00+28сз126310 0.0 102284
22:00+23с0072100 0.0 102211
23 июня, ср
ср2301:00+21зюз11752 0.0 102211
04:00+20зсз11780 0.0 102211
07:00+23ссз12705 0.0 102297
10:00+27сз23595 0.0 1021759
13:00+29сз334618 0.0 10211884
16:00+30ссз34425 0.0 10212189
19:00+28сз246368 0.0 1020150
22:00+22з22840 0.4 102030
24 июня, чт
чт2401:00+20з12810 0.0 102011
04:00+19зсз22855 0.1 102013
07:00+21сз368434 0.6 1020214
10:00+26сз34633 0.7 1019530
13:00+29с5552100 0.0 10191377
16:00+29с455049 0.0 10191821
19:00+24зсз4775100 0.6 1020163
22:00+19ююз1189100 1.3 101915